Weather reports worldwide

Advertisment
Verona/Villafranca, Italy (16090): temperature & dewpoint: 27.05.2020 22:00:00 - 02.06.2020 22:00:00 (CEST)Verona/Villafranca, Italy (16090): wind speed: 27.05.2020 22:00:00 - 02.06.2020 22:00:00 (CEST)Verona/Villafranca, Italy (16090): wind direction: 27.05.2020 22:00:00 - 02.06.2020 22:00:00 (CEST)Verona/Villafranca, Italy (16090): reduced air pressure: 27.05.2020 22:00:00 - 02.06.2020 22:00:00 (CEST)Verona/Villafranca, Italy (16090): visibility: 27.05.2020 22:00:00 - 02.06.2020 22:00:00 (CEST)Verona/Villafranca, Italy (16090): precipitation: 27.05.2020 22:00:00 - 02.06.2020 22:00:00 (CEST)
Date & Time tt [°C] td [°C] ff [km/h] ff [kn] dd ppp [hPa] vv [km] rr [mm]
02.06.2020 22:00:00 19,0 12,0 8 4 NNW - 10 -
02.06.2020 21:00:00 23,0 7,0 9 5 SSE - 10 -
02.06.2020 20:00:00 21,5 8,5 26 14 E 1010,5 10 -
02.06.2020 19:00:00 26,0 14,0 8 4 SE - 10 -
02.06.2020 18:00:00 28,0 12,0 13 7 SSW - 10 -
02.06.2020 17:00:00 27,3 11,9 13 7 WSW 1010,3 10 0,0
02.06.2020 16:00:00 28,0 12,0 13 7 WSW - 10 -
02.06.2020 15:00:00 28,0 12,0 15 8 SW - 10 -
02.06.2020 14:00:00 27,4 12,8 16 9 SW 1012,3 10 -
02.06.2020 13:00:00 26,0 10,0 9 5 SW - 10 -
02.06.2020 12:00:00 25,0 10,0 5 3 - - 10 -
02.06.2020 11:00:00 24,4 10,4 4 2 - 1014,2 10 0,0
02.06.2020 10:00:00 23,0 12,0 8 4 SSE - 10 -
02.06.2020 09:00:00 22,0 12,0 8 4 SE - 10 -
02.06.2020 08:00:00 20,1 11,0 5 3 NNW 1014,7 10 -
02.06.2020 07:00:00 17,0 11,0 11 6 NNW - 10 -
02.06.2020 06:00:00 15,0 10,0 8 4 N - 10 -
02.06.2020 05:00:00 16,5 10,8 8 4 NNW 1015,7 10 0,0
02.06.2020 04:00:00 15,0 11,0 5 3 NNW - 10 -
02.06.2020 03:00:00 16,0 11,0 8 4 NNW - 10 -
02.06.2020 02:00:00 15,7 11,1 9 5 NW 1016,7 10 -
02.06.2020 01:00:00 18,0 11,0 5 3 N - 10 -
02.06.2020 00:00:00 18,0 10,0 8 4 NNE - 10 -
01.06.2020 23:00:00 19,7 10,9 4 2 E 1016,6 10 0,0
01.06.2020 22:00:00 21,0 11,0 5 3 SE - 10 -
01.06.2020 21:00:00 22,0 11,0 8 4 SE - 10 -
01.06.2020 20:00:00 23,8 9,8 8 4 SSE 1015,7 10 -
01.06.2020 19:00:00 25,0 9,0 8 4 SSE - 10 -
01.06.2020 18:00:00 26,0 9,0 9 5 - - 10 -
01.06.2020 17:00:00 26,8 9,3 9 5 SE 1016,3 10 0,0
01.06.2020 16:00:00 26,0 9,0 8 4 SE - 10 -
01.06.2020 15:00:00 26,0 9,0 9 5 W - 10 -
01.06.2020 14:00:00 25,5 9,7 9 5 - 1017,2 10 -
01.06.2020 13:00:00 25,0 11,0 8 4 W - 10 -
01.06.2020 12:00:00 24,0 10,0 9 5 WSW - 10 -
01.06.2020 11:00:00 22,3 10,2 11 6 - 1017,9 10 0,0
01.06.2020 10:00:00 21,0 10,0 11 6 SW - 10 -
01.06.2020 09:00:00 20,0 11,0 9 5 W - 10 -
01.06.2020 08:00:00 19,5 10,6 8 4 W 1018,1 10 -
01.06.2020 07:00:00 16,0 10,0 8 4 NW - 10 -
01.06.2020 06:00:00 13,0 10,0 9 5 NW - 10 -
01.06.2020 05:00:00 13,9 10,2 8 4 N 1017,6 10 0,0
01.06.2020 04:00:00 15,0 10,0 9 5 N - 10 -
01.06.2020 03:00:00 15,0 9,0 5 3 NNE - 10 -
01.06.2020 02:00:00 15,7 9,7 8 4 ENE 1017,5 10 -
01.06.2020 01:00:00 16,0 11,0 8 4 E - 10 -
01.06.2020 00:00:00 14,0 11,0 5 3 N - 10 -
31.05.2020 23:00:00 15,4 11,1 5 3 NNW 1016,1 10 0,0
31.05.2020 22:00:00 18,0 10,0 4 2 SE - 10 -
31.05.2020 21:00:00 20,0 10,0 2 1 SSW - 10 -
31.05.2020 20:00:00 21,7 9,0 9 5 SW 1014,1 10 -
31.05.2020 19:00:00 22,0 9,0 8 4 S - 10 -
31.05.2020 18:00:00 23,0 10,0 9 5 SW - 10 -
31.05.2020 17:00:00 22,4 8,7 13 7 SW 1014,5 10 0,0
31.05.2020 16:00:00 22,0 8,0 4 2 - - 10 -
31.05.2020 15:00:00 22,0 9,0 8 4 - - 10 -
31.05.2020 14:00:00 20,8 7,7 9 5 S 1015,9 10 -
31.05.2020 13:00:00 20,0 10,0 5 3 - - 10 -
31.05.2020 12:00:00 20,0 10,0 11 6 E - 10 -
31.05.2020 11:00:00 18,3 7,4 15 8 ENE 1017,3 10 0,0
31.05.2020 10:00:00 18,0 8,0 15 8 NE - 10 -
31.05.2020 09:00:00 17,0 8,0 13 7 NE - 10 -
31.05.2020 08:00:00 16,5 8,6 8 4 NNE 1017,1 10 -
31.05.2020 07:00:00 15,0 11,0 4 2 WNW - 10 -
31.05.2020 06:00:00 14,0 10,0 5 3 NNW - 10 -
31.05.2020 05:00:00 14,4 10,7 9 5 NW 1016,6 10 0,0
31.05.2020 04:00:00 15,0 11,0 8 4 NNW - 10 -
31.05.2020 03:00:00 16,0 9,0 9 5 NNE - 10 -
31.05.2020 02:00:00 16,0 9,3 9 5 NE 1017,5 10 -
31.05.2020 01:00:00 17,0 9,0 13 7 ENE - 10 -
31.05.2020 00:00:00 17,0 9,0 15 8 ENE - 10 -
30.05.2020 23:00:00 17,8 11,1 11 6 ENE 1016,6 10 0,0
30.05.2020 22:00:00 18,0 11,0 9 5 NE - 10 -
30.05.2020 21:00:00 20,0 10,0 11 6 ENE - 10 -
30.05.2020 20:00:00 20,1 10,5 4 2 - 1015,0 10 -
30.05.2020 19:00:00 21,0 10,0 4 2 - - 10 -
30.05.2020 18:00:00 22,0 10,0 5 3 - - 10 -
30.05.2020 17:00:00 20,9 11,7 9 5 SE 1015,6 10 0,0
30.05.2020 16:00:00 20,0 13,0 11 6 ESE - 10 -
30.05.2020 15:00:00 20,0 11,0 9 5 E - 10 -
30.05.2020 14:00:00 20,9 8,9 5 3 - 1016,2 10 -
30.05.2020 13:00:00 22,0 9,0 8 4 - - 10 -
30.05.2020 12:00:00 20,0 9,0 13 7 E - 10 -
30.05.2020 11:00:00 19,9 10,4 13 7 ENE 1017,7 10 0,0
30.05.2020 10:00:00 19,0 9,0 15 8 ENE - 10 -
30.05.2020 09:00:00 18,0 10,0 8 4 E - 10 -
30.05.2020 08:00:00 16,4 11,3 4 2 - 1018,2 10 -
30.05.2020 07:00:00 14,0 11,0 4 2 N - 10 -
30.05.2020 06:00:00 12,0 10,0 5 3 NW - 10 -
30.05.2020 05:00:00 12,0 10,6 5 3 NW 1018,4 10 0,0
30.05.2020 04:00:00 13,0 11,0 2 1 - - 10 -
30.05.2020 03:00:00 14,0 11,0 5 3 WSW - 10 -
30.05.2020 02:00:00 15,4 10,7 4 2 W 1019,4 10 -
30.05.2020 01:00:00 15,0 11,0 5 3 SSW - 10 -
30.05.2020 00:00:00 15,0 11,0 9 5 WNW - 10 -
29.05.2020 23:00:00 14,6 11,0 4 2 WSW 1019,7 10 0,0
29.05.2020 22:00:00 16,0 10,0 5 3 SSE - 10 -
29.05.2020 21:00:00 18,0 11,0 5 3 SSE - 10 -
29.05.2020 20:00:00 19,1 9,7 11 6 SW 1018,9 10 -
29.05.2020 19:00:00 20,0 10,0 11 6 SSW - 10 -
29.05.2020 18:00:00 21,0 10,0 18 10 S - 10 -
29.05.2020 17:00:00 21,8 4,5 11 6 E 1019,2 10 0,0
29.05.2020 16:00:00 22,0 8,0 9 5 E - 10 -
29.05.2020 15:00:00 20,0 9,0 9 5 WNW - 10 -
29.05.2020 14:00:00 20,4 8,5 15 8 NE 1021,1 10 -
29.05.2020 13:00:00 19,0 8,0 5 3 - - 10 -
29.05.2020 12:00:00 19,0 10,0 8 4 - - 10 -
29.05.2020 11:00:00 18,6 11,0 9 5 SE 1022,7 10 0,0
29.05.2020 10:00:00 18,0 10,0 11 6 SE - 10 -
29.05.2020 09:00:00 15,0 9,0 9 5 NE - 10 -
29.05.2020 08:00:00 13,6 9,0 16 9 N 1022,8 10 -
29.05.2020 07:00:00 13,0 11,0 5 3 NE - 10 -
29.05.2020 06:00:00 15,0 10,0 11 6 E - 10 -
29.05.2020 05:00:00 15,3 11,9 15 8 ENE 1022,1 10 0,0
29.05.2020 04:00:00 15,0 11,0 16 9 NE - 10 -
29.05.2020 03:00:00 16,0 12,0 16 9 NE - 10 -
29.05.2020 02:00:00 16,0 12,4 16 9 ENE 1021,8 10 -
29.05.2020 01:00:00 16,0 12,0 15 8 E - 10 -
29.05.2020 00:00:00 16,0 13,0 5 3 NNE - 10 -
28.05.2020 23:00:00 17,1 12,1 8 4 - 1020,1 10 0,0
28.05.2020 22:00:00 20,0 10,0 11 6 NW - 10 -
28.05.2020 21:00:00 20,0 9,0 4 2 N - 10 -
28.05.2020 20:00:00 22,7 8,3 5 3 NNW 1019,2 10 -
28.05.2020 19:00:00 22,0 9,0 4 2 NW - 10 -
28.05.2020 18:00:00 24,0 6,0 8 4 W - 10 -
28.05.2020 17:00:00 23,9 5,9 5 3 SW 1020,7 10 0,0
28.05.2020 16:00:00 25,0 5,0 9 5 WSW - 10 -
28.05.2020 15:00:00 25,0 7,0 9 5 SE - 10 -
28.05.2020 14:00:00 24,1 7,2 5 3 - 1022,6 10 -
28.05.2020 13:00:00 24,0 6,0 11 6 ESE - 10 -
28.05.2020 12:00:00 23,0 8,0 9 5 E - 10 -
28.05.2020 11:00:00 21,3 9,1 8 4 E 1024,7 10 0,0
28.05.2020 10:00:00 20,0 10,0 5 3 ESE - 10 -
28.05.2020 09:00:00 18,0 11,0 4 2 - - 10 -
28.05.2020 08:00:00 16,5 10,2 4 2 - 1025,6 10 -
28.05.2020 07:00:00 13,0 9,0 5 3 NNW - 10 -
28.05.2020 06:00:00 13,0 9,0 4 2 NNW - 10 -
28.05.2020 05:00:00 13,3 8,4 8 4 NW 1025,9 10 0,0
28.05.2020 04:00:00 13,0 8,0 4 2 NW - 10 -
28.05.2020 03:00:00 14,0 8,0 9 5 NW - 10 -
28.05.2020 02:00:00 13,2 9,1 8 4 NNW 1027,1 10 -
28.05.2020 01:00:00 14,0 9,0 8 4 N - 10 -
28.05.2020 00:00:00 16,0 9,0 5 3 N - 10 -
27.05.2020 23:00:00 16,1 9,0 8 4 N 1027,4 10 0,0
27.05.2020 22:00:00 18,0 8,0 4 2 SSW - 10 -

tt = temperature
td = dewpoint
ff = wind speed
dd = wind direction
ppp = reduced air pressure
vv = visibility
rr = precipitation

Next stations